Simultaneous Nadir Overpasses (SNOs) Predictions

Prediction of SNOs between GOES-16 and LANDSAT-8 Satellite Orbit:

Table of predicted SNOs for the next 14.0 days since TLE Epoch: 6/26/2021
Index Date Time (GOES-16) GOES-16 Lat,Lon LANDSAT-8 Lat,Lon Distance(km) Time Diff (sec)
1 06/27/2021 03:03:25 0.03, -75.13 0.45, -73.21 218.48 80
2 06/27/2021 15:27:20 -0.02, -75.16 0.69, -78.36 364.30 80
3 06/29/2021 15:15:10 -0.03, -75.17 -0.00, -75.41 27.49 80
4 07/01/2021 15:00:19 -0.04, -75.18 -0.63, -72.45 310.47 80
5 07/02/2021 03:24:22 0.03, -75.16 -0.50, -77.64 282.16 80
6 07/04/2021 03:09:31 0.03, -75.18 0.13, -74.68 56.50 80
7 07/06/2021 02:57:21 0.03, -75.20 0.77, -71.72 395.56 80
8 07/06/2021 15:21:16 -0.02, -75.24 0.30, -76.88 186.68 80
9 07/08/2021 15:06:25 -0.03, -75.27 -0.34, -73.93 152.78 80
10 07/09/2021 03:30:29 0.01, -75.25 -0.79, -79.11 439.11 80
